Weather History for Napoli / Capodichino, Italy

Change the Weather History Date:

Saturday, September 21, 2013

  Actual Average Record
Temperature  
Mean Temperature 74 °F -  
Max Temperature 84 °F 73 °F - ()
Min Temperature 64 °F 55 °F - ()
Cooling Degree Days 9    
Growing Degree Days 24 (Base 50)    
Moisture  
Dew Point 57 °F    
Average Humidity 61    
Maximum Humidity 83    
Minimum Humidity 23    
Precipitation  
Precipitation 0.00 in 0.15 in - ()
Sea Level Pressure  
Sea Level Pressure 30.07 in    
Wind  
Wind Speed 4 mph ()    
Max Wind Speed 13 mph    
Max Gust Speed 20 mph    
Visibility 6.2 miles    
Events      
T = Trace of Precipitation, MM = Missing Value Source: Averaged Metar Reports

Daily Weather History Graph

Daily Weather History Graph

Search for Another Location

Airport:

Trip Planner

Search our weather history database for the weather conditions in past years. The results will help you decide how hot, cold, wet, or windy it might be!

Date:

Astronomy

Sep. 21, 2013 Rise Set
Actual Time 6:49 AM CEST 7:01 PM CEST
Civil Twilight 6:21 AM CEST 7:29 PM CEST
Nautical Twilight 5:49 AM CEST 8:01 PM CEST
Astronomical Twilight 5:16 AM CEST 8:33 PM CEST
Moon 8:00 PM CEST (9/21) 8:50 AM CEST (9/21)
Length of Visible Light 13h 07m
Length of Day
12h 12m
Waning Gibbous, 95% of the Moon is Illuminated
Sep 21
Waning Gibbous
Sep 27
Last Quarter
Oct 5
New
Oct 12
First Quarter
Oct 19
Full

Hourly Weather History & Observations

Time (CEST) Temp. Heat Index Dew Point Humidity Pressure Visibility Wind Dir Wind Speed Gust Speed Precip Events Conditions
12:20 AM 69.8 °F - 60.8 °F 73% 30.04 in - NNE 2.3 mph - N/A   Clear
12:50 AM 68.0 °F - 60.8 °F 78% 30.04 in - NNE 3.5 mph - N/A   Clear
1:20 AM 68.0 °F - 60.8 °F 78% 30.04 in - North 3.5 mph - N/A   Clear
1:50 AM 66.2 °F - 59.0 °F 78% 30.04 in - NNE 4.6 mph - N/A   Clear
2:20 AM 66.2 °F - 59.0 °F 78% 30.04 in - North 3.5 mph - N/A   Clear
2:50 AM 66.2 °F - 59.0 °F 78% 30.04 in - NNW 2.3 mph - N/A   Clear
3:20 AM 66.2 °F - 59.0 °F 78% 30.04 in - WNW 3.5 mph - N/A   Clear
3:50 AM 66.2 °F - 59.0 °F 78% 30.04 in - Variable 2.3 mph - N/A   Clear
4:20 AM 66.2 °F - 59.0 °F 78% 30.04 in - North 2.3 mph - N/A   Clear
4:50 AM 66.2 °F - 59.0 °F 78% 30.04 in - NNE 2.3 mph - N/A   Clear
5:20 AM 64.4 °F - 57.2 °F 77% 30.04 in - North 2.3 mph - N/A   Clear
5:50 AM 64.4 °F - 57.2 °F 77% 30.04 in - Variable 1.2 mph - N/A   Clear
6:20 AM 64.4 °F - 57.2 °F 77% 30.04 in - North 2.3 mph - N/A   Clear
6:50 AM 64.4 °F - 57.2 °F 77% 30.06 in - North 3.5 mph - N/A   Clear
7:20 AM 64.4 °F - 59.0 °F 83% 30.06 in - North 3.5 mph - N/A   Clear
7:50 AM 66.2 °F - 57.2 °F 73% 30.06 in - North 5.8 mph - N/A   Clear
8:20 AM 66.2 °F - 57.2 °F 73% 30.06 in - NNE 3.5 mph - N/A   Clear
8:50 AM 69.8 °F - 59.0 °F 68% 30.06 in - NNE 4.6 mph - N/A   Clear
9:20 AM 71.6 °F - 59.0 °F 64% 30.06 in - NNE 3.5 mph - N/A   Clear
9:50 AM 73.4 °F - 59.0 °F 61% 30.09 in - North 4.6 mph - N/A   Clear
10:20 AM 75.2 °F - 57.2 °F 53% 30.09 in - North 4.6 mph - N/A   Clear
10:50 AM 77.0 °F - 57.2 °F 50% 30.09 in - NNE 5.8 mph - N/A   Clear
11:20 AM 77.0 °F - 55.4 °F 47% 30.09 in - North 6.9 mph - N/A   Clear
11:50 AM 78.8 °F - 50.0 °F 36% 30.09 in - North 8.1 mph - N/A   Clear
12:20 PM 80.6 °F - 48.2 °F 32% 30.09 in - NE 9.2 mph - N/A   Clear
12:50 PM 82.4 °F - 44.6 °F 26% 30.09 in - NNE 8.1 mph - N/A   Clear
1:20 PM 82.4 °F - 44.6 °F 26% 30.09 in - North 8.1 mph 19.6 mph N/A   Clear
1:50 PM 84.2 °F - 42.8 °F 23% 30.06 in - North 9.2 mph - N/A   Clear
2:20 PM 84.2 °F - 42.8 °F 23% 30.06 in - North 5.8 mph - N/A   Clear
2:50 PM 84.2 °F - 46.4 °F 27% 30.06 in - Variable 4.6 mph - N/A   Clear
3:20 PM 84.2 °F - 46.4 °F 27% 30.06 in - ENE 6.9 mph - N/A   Clear
3:50 PM 84.2 °F 82.8 °F 53.6 °F 35% 30.06 in 6.2 mi South 6.9 mph - N/A   Partly Cloudy
4:20 PM 82.4 °F 81.4 °F 53.6 °F 37% 30.06 in 6.2 mi South 5.8 mph - N/A   Partly Cloudy
4:50 PM 78.8 °F - 60.8 °F 54% 30.06 in 6.2 mi West 11.5 mph - N/A   Scattered Clouds
5:20 PM 77.0 °F - 59.0 °F 54% 30.06 in 6.2 mi West 12.7 mph - N/A   Scattered Clouds
5:50 PM 77.0 °F - 62.6 °F 61% 30.06 in - WNW 11.5 mph - N/A   Clear
6:20 PM 77.0 °F - 62.6 °F 61% 30.06 in - WNW 10.4 mph - N/A   Clear
6:50 PM 75.2 °F - 64.4 °F 69% 30.06 in - WNW 8.1 mph - N/A   Clear
7:20 PM 75.2 °F - 64.4 °F 69% 30.09 in 6.2 mi NNW 6.9 mph - N/A   Partly Cloudy
7:50 PM 73.4 °F - 64.4 °F 73% 30.09 in 6.2 mi NW 6.9 mph - N/A   Partly Cloudy
8:20 PM 73.4 °F - 64.4 °F 73% 30.09 in 6.2 mi Variable 1.2 mph - N/A   Partly Cloudy
8:50 PM 73.4 °F - 64.4 °F 73% 30.09 in 6.2 mi NNE 3.5 mph - N/A   Partly Cloudy
9:20 PM 73.4 °F - 64.4 °F 73% 30.12 in 6.2 mi Variable 2.3 mph - N/A   Partly Cloudy
9:50 PM 73.4 °F - 64.4 °F 73% 30.12 in 6.2 mi NE 3.5 mph - N/A   Partly Cloudy
10:20 PM 71.6 °F - 62.6 °F 73% 30.12 in 6.2 mi NE 5.8 mph - N/A   Partly Cloudy
10:50 PM 73.4 °F - 55.4 °F 53% 30.12 in 6.2 mi ENE 8.1 mph - N/A   Partly Cloudy
11:20 PM 73.4 °F - 53.6 °F 50% 30.12 in 6.2 mi ENE 10.4 mph - N/A   Mostly Cloudy
11:50 PM 73.4 °F - 53.6 °F 50% 30.12 in 6.2 mi ENE 10.4 mph - N/A   Mostly Cloudy